Weather History for Waseca, MN

Change the Weather History Date:

Saturday, November 3, 2012

  Actual Average Record
Temperature  
Mean Temperature 40 °F -  
Max Temperature 44 °F 47 °F 77 °F (2008)
Min Temperature 37 °F 29 °F 7 °F (1951)
Degree Days  
Heating Degree Days 24    
Moisture  
Dew Point 29 °F    
Average Humidity 63    
Maximum Humidity 75    
Minimum Humidity 49    
Precipitation  
Precipitation 0.04 in - - ()
Sea Level Pressure  
Sea Level Pressure 30.20 in    
Wind  
Wind Speed 1 mph (North)    
Max Wind Speed 5 mph    
Max Gust Speed -    
Visibility 10 miles    
Events Rain    
Averages and records for this station are not official NWS values.
T = Trace of Precipitation, MM = Missing Value Source: NWS Daily Summary

Daily Weather History Graph

Daily Weather History Graph

Search for Another Location

Airport:

Trip Planner

Search our weather history database for the weather conditions in past years. The results will help you decide how hot, cold, wet, or windy it might be!

Date:

Astronomy

Nov. 03, 2012 Rise Set
Actual Time 7:54 AM CDT 6:00 PM CDT
Civil Twilight 7:23 AM CDT 6:31 PM CDT
Nautical Twilight 6:49 AM CDT 7:05 PM CDT
Astronomical Twilight 6:15 AM CDT 7:38 PM CDT
Moon 9:39 PM CDT (11/3) 12:02 PM CDT (11/3)
Length of Visible Light 11h 07m
Length of Day
10h 06m
Waning Gibbous, 80% of the Moon is Illuminated
Nov 3
Waning Gibbous
Nov 6
Last Quarter
Nov 13
New
Nov 20
First Quarter
Nov 28
Full

Hourly Weather History & Observations

Time (CDT) Temp. Windchill Dew Point Humidity Pressure Visibility Wind Dir Wind Speed Gust Speed Precip Events Conditions
12:13 AM 39.2 °F - 30.2 °F 70% 30.16 in 10.0 mi Calm Calm - N/A   Overcast
12:33 AM 39.2 °F - 30.2 °F 70% 30.16 in 10.0 mi Calm Calm - N/A   Overcast
12:53 AM 39.2 °F 37.0 °F 30.2 °F 70% 30.16 in 10.0 mi North 3.5 mph - N/A   Overcast
1:13 AM 39.2 °F 37.0 °F 30.2 °F 70% 30.16 in 10.0 mi North 3.5 mph - N/A   Overcast
1:32 AM 39.2 °F 37.0 °F 30.2 °F 70% 30.16 in 10.0 mi North 3.5 mph - N/A   Overcast
1:53 AM 39.2 °F - 30.2 °F 70% 30.16 in 10.0 mi Calm Calm - N/A   Overcast
2:13 AM 39.2 °F - 28.4 °F 65% 30.15 in 10.0 mi Calm Calm - N/A   Overcast
2:33 AM 39.2 °F - 28.4 °F 65% 30.16 in 10.0 mi Calm Calm - N/A   Overcast
2:53 AM 39.2 °F 37.0 °F 30.2 °F 70% 30.16 in 10.0 mi North 3.5 mph - N/A   Overcast
3:13 AM 39.2 °F 35.9 °F 30.2 °F 70% 30.16 in 10.0 mi NNW 4.6 mph - N/A   Overcast
3:33 AM 37.4 °F 34.9 °F 30.2 °F 75% 30.16 in 10.0 mi North 3.5 mph - N/A   Overcast
3:53 AM 37.4 °F - 30.2 °F 75% 30.15 in 10.0 mi Calm Calm - N/A   Overcast
4:13 AM 39.2 °F 37.0 °F 30.2 °F 70% 30.15 in 10.0 mi NNE 3.5 mph - N/A   Overcast
4:33 AM 39.2 °F 35.9 °F 30.2 °F 70% 30.16 in 10.0 mi NNE 4.6 mph - N/A   Overcast
4:53 AM 39.2 °F 37.0 °F 30.2 °F 70% 30.16 in 10.0 mi NE 3.5 mph - N/A   Overcast
5:12 AM 39.2 °F - 30.2 °F 70% 30.16 in 10.0 mi Calm Calm - N/A   Overcast
5:33 AM 39.2 °F - 30.2 °F 70% 30.16 in 10.0 mi Calm Calm - N/A   Overcast
5:53 AM 39.2 °F 37.0 °F 30.2 °F 70% 30.17 in 10.0 mi NNE 3.5 mph - N/A   Overcast
6:13 AM 37.4 °F - 30.2 °F 75% 30.18 in 10.0 mi Calm Calm - N/A   Overcast
6:32 AM 37.4 °F - 30.2 °F 75% 30.18 in 10.0 mi Calm Calm - N/A   Overcast
6:53 AM 39.2 °F - 30.2 °F 70% 30.18 in 10.0 mi Calm Calm - N/A   Overcast
7:13 AM 39.2 °F - 30.2 °F 70% 30.17 in 10.0 mi Calm Calm - N/A   Overcast
7:33 AM 39.2 °F - 30.2 °F 70% 30.19 in 10.0 mi Calm Calm - N/A   Overcast
7:53 AM 39.2 °F - 32.0 °F 75% 30.19 in 10.0 mi Calm Calm - N/A   Overcast
8:13 AM 39.2 °F - 32.0 °F 75% 30.20 in 10.0 mi Calm Calm - N/A   Overcast
8:33 AM 39.2 °F - 32.0 °F 75% 30.20 in 10.0 mi Calm Calm - N/A   Overcast
8:53 AM 39.2 °F - 30.2 °F 70% 30.20 in 10.0 mi Calm Calm - N/A   Overcast
9:13 AM 39.2 °F - 30.2 °F 70% 30.21 in 10.0 mi Calm Calm - N/A   Overcast
9:33 AM 39.2 °F - 30.2 °F 70% 30.22 in 10.0 mi Calm Calm - N/A   Overcast
9:53 AM 39.2 °F - 28.4 °F 65% 30.22 in 10.0 mi Calm Calm - N/A   Overcast
10:13 AM 39.2 °F - 28.4 °F 65% 30.22 in 10.0 mi Calm Calm - N/A   Overcast
10:33 AM 41.0 °F 39.0 °F 28.4 °F 61% 30.21 in 10.0 mi ESE 3.5 mph - N/A   Overcast
10:53 AM 41.0 °F - 28.4 °F 61% 30.21 in 10.0 mi Calm Calm - N/A   Overcast
11:13 AM 41.0 °F - 30.2 °F 65% 30.22 in 10.0 mi Calm Calm - N/A   Overcast
11:33 AM 41.0 °F - 28.4 °F 61% 30.22 in 10.0 mi Calm Calm - N/A   Overcast
11:53 AM 41.0 °F - 26.6 °F 57% 30.22 in 10.0 mi Calm Calm - N/A   Overcast
12:12 PM 42.8 °F 41.1 °F 26.6 °F 53% 30.23 in 10.0 mi WNW 3.5 mph - N/A   Overcast
12:33 PM 44.6 °F 43.1 °F 28.4 °F 53% 30.22 in 10.0 mi WNW 3.5 mph - N/A   Overcast
12:53 PM 44.6 °F - 28.4 °F 53% 30.22 in 10.0 mi Calm Calm - N/A   Overcast
1:13 PM 44.6 °F - 28.4 °F 53% 30.21 in 10.0 mi Calm Calm - N/A   Overcast
1:32 PM 44.6 °F - 28.4 °F 53% 30.21 in 10.0 mi Calm Calm - N/A   Overcast
1:53 PM 44.6 °F - 26.6 °F 49% 30.21 in 10.0 mi Calm Calm - N/A   Overcast
2:13 PM 44.6 °F - 26.6 °F 49% 30.21 in 10.0 mi Calm Calm - N/A   Overcast
2:33 PM 44.6 °F - 26.6 °F 49% 30.21 in 10.0 mi Calm Calm - N/A   Overcast
2:53 PM 44.6 °F - 26.6 °F 49% 30.21 in 10.0 mi Calm Calm - N/A   Overcast
3:13 PM 44.6 °F - 26.6 °F 49% 30.20 in 10.0 mi Calm Calm - N/A   Overcast
3:33 PM 44.6 °F - 26.6 °F 49% 30.20 in 10.0 mi Calm Calm - N/A   Overcast
3:53 PM 44.6 °F - 26.6 °F 49% 30.20 in 10.0 mi Calm Calm - N/A   Overcast
4:13 PM 44.6 °F 42.2 °F 26.6 °F 49% 30.20 in 10.0 mi NW 4.6 mph - N/A   Overcast
4:33 PM 44.6 °F 43.1 °F 26.6 °F 49% 30.20 in 10.0 mi West 3.5 mph - N/A   Overcast
4:53 PM 44.6 °F 43.1 °F 26.6 °F 49% 30.20 in 10.0 mi West 3.5 mph - N/A   Overcast
5:13 PM 44.6 °F - 26.6 °F 49% 30.20 in 10.0 mi Calm Calm - N/A   Overcast
5:33 PM 44.6 °F - 26.6 °F 49% 30.20 in 10.0 mi Calm Calm - N/A   Overcast
5:53 PM 44.6 °F - 26.6 °F 49% 30.19 in 10.0 mi Calm Calm - N/A   Overcast
6:13 PM 44.6 °F - 28.4 °F 53% 30.20 in 10.0 mi Calm Calm - N/A   Overcast
6:33 PM 44.6 °F - 28.4 °F 53% 30.20 in 10.0 mi Calm Calm - N/A   Overcast
6:53 PM 44.6 °F - 30.2 °F 57% 30.20 in 5.0 mi Calm Calm - N/A   Haze
7:13 PM 44.6 °F - 28.4 °F 53% 30.21 in 10.0 mi Calm Calm - N/A   Overcast
7:33 PM 42.8 °F - 30.2 °F 61% 30.21 in 7.0 mi Calm Calm - N/A   Overcast
8:13 PM 41.0 °F - 30.2 °F 65% 30.21 in 7.0 mi Calm Calm - N/A   Overcast
8:33 PM 41.0 °F - 30.2 °F 65% 30.21 in 10.0 mi Calm Calm - N/A   Overcast
8:53 PM 41.0 °F 39.0 °F 30.2 °F 65% 30.20 in 10.0 mi East 3.5 mph - N/A   Overcast
9:13 PM 41.0 °F - 30.2 °F 65% 30.20 in 10.0 mi Calm Calm - N/A   Overcast
9:33 PM 41.0 °F - 28.4 °F 61% 30.21 in 10.0 mi Calm Calm - N/A   Overcast
9:53 PM 41.0 °F - 30.2 °F 65% 30.22 in 10.0 mi Calm Calm - N/A Rain Light Rain
10:13 PM 42.8 °F 41.1 °F 30.2 °F 61% 30.22 in 10.0 mi WNW 3.5 mph - N/A   Light Drizzle
10:33 PM 41.0 °F - 32.0 °F 70% 30.22 in 10.0 mi Calm Calm - N/A Rain Rain
10:53 PM 41.0 °F - 32.0 °F 70% 30.23 in 7.0 mi Calm Calm - N/A Rain Light Rain
11:13 PM 41.0 °F - 32.0 °F 70% 30.23 in 5.0 mi Calm Calm - N/A Rain Light Rain
11:32 PM 39.2 °F - 32.0 °F 75% 30.23 in 4.0 mi Calm Calm - 0.03 in Rain Rain
11:53 PM 39.2 °F - 32.0 °F 75% 30.23 in 5.0 mi Calm Calm - 0.04 in Rain Light Rain